GAOFEN 12-05

导读 | 星芒AI

GAOFEN 12-05 是中国高分辨率对地观测系统(高分专项)中的一颗遥感卫星,主要用于国土监测、资源调查和环境评估等领域。该卫星具备高分辨率成像能力,能够提供清晰的地球表面图像,支持国家在农业、林业、城市规划和防灾减灾等方面的应用需求。GAOFEN 12-05 的发射进一步增强了中国在高分辨率遥感领域的自主能力和技术水平。

基本信息
目录编号:
61571
目录名称:
GAOFEN 12-05
国际标识:
2024-186A
轨道中心:
EARTH
卫星名称:
GAOFEN 12-05
卫星全名:
GAOFEN 12-05
卫星状态:
在轨 (已飞行426 天)
发射日期:
2024-10-15 UTC
国别 :
中国 (CN)
星等 :
--
轨道信息
数据来源 国际轨道数据
星历时间: 2025-12-15T08:16:20+0800
18小时前
查看轨道信息
半长轴: 7005.099km
偏心率: 0.0001867
轨道倾角: 97.912°
近地点辐角 115.064°
升交点赤经 354.613°
平近点角 245.077°
近地点: 625.656km
远地点: 628.272km
周期: 97.248分钟
每日圈数: 14.807489
详细信息
使用方式:
暂无
2D轨道图
3D轨道图
轨道高度分析图
轨道倾角分析图
轨道综合分析图
查看轨道综合分析图